owner,sensor,date,latitude,longitude,vertical_datum,direction_of_sea_water_velocity,sea_water_speed,upward_sea_water_velocity,qcFlag 
TABS,ioos:station:wmo:42043:1,2006-03-01T00:00:00Z,28.9818,-94.9186,2.0,232.0758964,37.08027238,-99999.0,'11111222,11111222,99999999' 
TABS,ioos:station:wmo:42043:1,2006-03-01T00:30:00Z,28.9818,-94.9186,2.0,234.3182911,38.47227703,-99999.0,'11111222,11111222,99999999' 
TABS,ioos:station:wmo:42043:1,2006-03-01T01:00:00Z,28.9818,-94.9186,2.0,230.2295112,35.21911129,-99999.0,'11111222,11111222,99999999' 
TABS,ioos:station:wmo:42043:1,2006-03-01T01:30:00Z,28.9818,-94.9186,2.0,222.6665733,33.52343807,-99999.0,'11111222,11111222,99999999' 
TABS,ioos:station:wmo:42043:1,2006-03-01T02:00:00Z,28.9818,-94.9186,2.0,218.911675,31.93628188,-99999.0,'11111222,11111222,99999999' 
TABS,ioos:station:wmo:42043:1,2006-03-01T02:30:00Z,28.9818,-94.9186,2.0,217.9394469,31.81354586,-99999.0,'11111222,11111222,99999999' 
TABS,ioos:station:wmo:42043:1,2006-03-01T03:00:00Z,28.9818,-94.9186,2.0,215.5484482,30.10000166,-99999.0,'11111222,11111222,99999999' 
TABS,ioos:station:wmo:42043:1,2006-03-01T03:30:00Z,28.9818,-94.9186,2.0,222.4431784,29.96165049,-99999.0,'11111222,11111222,99999999' 
TABS,ioos:station:wmo:42043:1,2006-03-01T04:00:00Z,28.9818,-94.9186,2.0,222.5204517,27.29866114,-99999.0,'11111222,11111222,99999999' 
TABS,ioos:station:wmo:42043:1,2006-03-01T04:30:00Z,28.9818,-94.9186,2.0,228.1786302,25.62963324,-99999.0,'11111222,11111222,99999999' 
TABS,ioos:station:wmo:42043:1,2006-03-01T05:00:00Z,28.9818,-94.9186,2.0,234.4791576,23.27045337,-99999.0,'11111222,11111222,99999999' 
TABS,ioos:station:wmo:42043:1,2006-03-01T05:30:00Z,28.9818,-94.9186,2.0,238.4687267,20.09718886,-99999.0,'11111222,11111222,99999999' 
TABS,ioos:station:wmo:42043:1,2006-03-01T06:00:00Z,28.9818,-94.9186,2.0,237.2183549,16.43783441,-99999.0,'11111222,11111222,99999999' 
TABS,ioos:station:wmo:42043:1,2006-03-01T06:30:00Z,28.9818,-94.9186,2.0,231.2742618,16.36858271,-99999.0,'11111222,11111222,99999999' 
TABS,ioos:station:wmo:42043:1,2006-03-01T07:00:00Z,28.9818,-94.9186,2.0,231.2442003,16.83711674,-99999.0,'11111222,11111222,99999999' 
TABS,ioos:station:wmo:42043:1,2006-03-01T07:30:00Z,28.9818,-94.9186,2.0,225.8145258,14.41936545,-99999.0,'11111222,11111222,99999999' 
TABS,ioos:station:wmo:42043:1,2006-03-01T08:00:00Z,28.9818,-94.9186,2.0,218.0219223,15.01703699,-99999.0,'11111222,11111222,99999999' 
TABS,ioos:station:wmo:42043:1,2006-03-01T08:30:00Z,28.9818,-94.9186,2.0,219.3570507,14.23941712,-99999.0,'11111222,11111222,99999999' 
TABS,ioos:station:wmo:42043:1,2006-03-01T09:00:00Z,28.9818,-94.9186,2.0,209.3701253,14.80262139,-99999.0,'11111222,11111222,99999999' 
TABS,ioos:station:wmo:42043:1,2006-03-01T09:30:00Z,28.9818,-94.9186,2.0,205.0647687,17.25494132,-99999.0,'11111222,11111222,99999999' 
TABS,ioos:station:wmo:42043:1,2006-03-01T10:00:00Z,28.9818,-94.9186,2.0,200.8502928,19.58241303,-99999.0,'11111222,11111222,99999999' 
TABS,ioos:station:wmo:42043:1,2006-03-01T10:30:00Z,28.9818,-94.9186,2.0,205.5683261,20.82988718,-99999.0,'11111222,11111222,99999999' 
TABS,ioos:station:wmo:42043:1,2006-03-01T11:00:00Z,28.9818,-94.9186,2.0,210.6511493,23.91068799,-99999.0,'11111222,11111222,99999999' 
TABS,ioos:station:wmo:42043:1,2006-03-01T11:30:00Z,28.9818,-94.9186,2.0,209.9784036,25.83665032,-99999.0,'11111222,11111222,99999999' 
TABS,ioos:station:wmo:42043:1,2006-03-01T12:00:00Z,28.9818,-94.9186,2.0,200.1844224,28.17005502,-99999.0,'11111222,11111222,99999999' 
TABS,ioos:station:wmo:42043:1,2006-03-01T12:30:00Z,28.9818,-94.9186,2.0,206.9220344,28.68930986,-99999.0,'11111222,11111222,99999999' 
TABS,ioos:station:wmo:42043:1,2006-03-01T13:00:00Z,28.9818,-94.9186,2.0,213.1483924,29.05926702,-99999.0,'11111222,11111222,99999999' 
TABS,ioos:station:wmo:42043:1,2006-03-01T13:30:00Z,28.9818,-94.9186,2.0,212.4253005,31.79761155,-99999.0,'11111222,11111222,99999999' 
TABS,ioos:station:wmo:42043:1,2006-03-01T14:00:00Z,28.9818,-94.9186,2.0,210.1633253,30.21070671,-99999.0,'11111222,11111222,99999999' 
TABS,ioos:station:wmo:42043:1,2006-03-01T14:30:00Z,28.9818,-94.9186,2.0,215.8957834,34.00891207,-99999.0,'11111222,11111222,99999999' 
TABS,ioos:station:wmo:42043:1,2006-03-01T15:00:00Z,28.9818,-94.9186,2.0,217.4859075,34.7700115,-99999.0,'11111222,11111222,99999999' 
TABS,ioos:station:wmo:42043:1,2006-03-01T15:30:00Z,28.9818,-94.9186,2.0,217.3671531,31.78319839,-99999.0,'11111222,11111222,99999999' 
TABS,ioos:station:wmo:42043:1,2006-03-01T16:00:00Z,28.9818,-94.9186,2.0,219.9454665,27.20919881,-99999.0,'11111222,11111222,99999999' 
TABS,ioos:station:wmo:42043:1,2006-03-01T16:30:00Z,28.9818,-94.9186,2.0,217.3988759,25.98110852,-99999.0,'11111222,11111222,99999999' 
TABS,ioos:station:wmo:42043:1,2006-03-01T17:00:00Z,28.9818,-94.9186,2.0,218.5405464,22.56559549,-99999.0,'11111222,11111222,99999999' 
TABS,ioos:station:wmo:42043:1,2006-03-01T17:30:00Z,28.9818,-94.9186,2.0,225.0395006,20.35053808,-99999.0,'11111222,11111222,99999999' 
TABS,ioos:station:wmo:42043:1,2006-03-01T18:00:00Z,28.9818,-94.9186,2.0,226.795392,19.63185422,-99999.0,'11111222,11111222,99999999' 
TABS,ioos:station:wmo:42043:1,2006-03-01T18:30:00Z,28.9818,-94.9186,2.0,225.0215445,18.53327008,-99999.0,'11111222,11111222,99999999' 
TABS,ioos:station:wmo:42043:1,2006-03-01T19:00:00Z,28.9818,-94.9186,2.0,232.2120344,16.1080663,-99999.0,'11111222,11111222,99999999' 
TABS,ioos:station:wmo:42043:1,2006-03-01T19:30:00Z,28.9818,-94.9186,2.0,232.4752046,18.20718814,-99999.0,'11111222,11111222,99999999' 
TABS,ioos:station:wmo:42043:1,2006-03-01T20:00:00Z,28.9818,-94.9186,2.0,234.6430536,18.02428639,-99999.0,'11111222,11111222,99999999' 
TABS,ioos:station:wmo:42043:1,2006-03-01T20:30:00Z,28.9818,-94.9186,2.0,233.3564804,18.19614245,-99999.0,'11111222,11111222,99999999' 
TABS,ioos:station:wmo:42043:1,2006-03-01T21:00:00Z,28.9818,-94.9186,2.0,224.5814753,18.40647984,-99999.0,'11111222,11111222,99999999' 
TABS,ioos:station:wmo:42043:1,2006-03-01T21:30:00Z,28.9818,-94.9186,2.0,222.7905619,19.07777765,-99999.0,'11111222,11111222,99999999' 
TABS,ioos:station:wmo:42043:1,2006-03-01T22:00:00Z,28.9818,-94.9186,2.0,220.2992823,19.15630967,-99999.0,'11111222,11111222,99999999' 
TABS,ioos:station:wmo:42043:1,2006-03-01T22:30:00Z,28.9818,-94.9186,2.0,219.830054,20.71764948,-99999.0,'11111222,11111222,99999999' 
TABS,ioos:station:wmo:42043:1,2006-03-01T23:00:00Z,28.9818,-94.9186,2.0,213.9282914,21.32008677,-99999.0,'11111222,11111222,99999999' 
TABS,ioos:station:wmo:42043:1,2006-03-01T23:30:00Z,28.9818,-94.9186,2.0,214.0414186,21.23987053,-99999.0,'11111222,11111222,99999999' 
TABS,ioos:station:wmo:42043:1,2006-03-02T00:00:00Z,28.9818,-94.9186,2.0,211.9127259,24.32698296,-99999.0,'11111222,11111222,99999999' 
TABS,ioos:station:wmo:42043:1,2006-03-02T00:30:00Z,28.9818,-94.9186,2.0,209.9690133,26.28440222,-99999.0,'11111222,11111222,99999999' 
TABS,ioos:station:wmo:42043:1,2006-03-02T01:00:00Z,28.9818,-94.9186,2.0,208.6995419,31.21481219,-99999.0,'11111222,11111222,99999999' 
TABS,ioos:station:wmo:42043:1,2006-03-02T01:30:00Z,28.9818,-94.9186,2.0,211.0517131,27.83939834,-99999.0,'11111222,11111222,99999999' 
TABS,ioos:station:wmo:42043:1,2006-03-02T02:00:00Z,28.9818,-94.9186,2.0,214.3832016,31.6257743,-99999.0,'11111222,11111222,99999999' 
TABS,ioos:station:wmo:42043:1,2006-03-02T02:30:00Z,28.9818,-94.9186,2.0,214.1339217,32.55910625,-99999.0,'11111222,11111222,99999999' 
TABS,ioos:station:wmo:42043:1,2006-03-02T03:00:00Z,28.9818,-94.9186,2.0,219.2521904,32.76232287,-99999.0,'11111222,11111222,99999999' 
TABS,ioos:station:wmo:42043:1,2006-03-02T03:30:00Z,28.9818,-94.9186,2.0,221.2261566,31.91020056,-99999.0,'11111222,11111222,99999999' 
TABS,ioos:station:wmo:42043:1,2006-03-02T04:00:00Z,28.9818,-94.9186,2.0,231.2334395,28.58765643,-99999.0,'11111222,11111222,99999999' 
TABS,ioos:station:wmo:42043:1,2006-03-02T04:30:00Z,28.9818,-94.9186,2.0,238.9659459,26.6903447,-99999.0,'11111222,11111222,99999999' 
TABS,ioos:station:wmo:42043:1,2006-03-02T05:00:00Z,28.9818,-94.9186,2.0,240.6173932,25.47724475,-99999.0,'11111222,11111222,99999999' 
TABS,ioos:station:wmo:42043:1,2006-03-02T05:30:00Z,28.9818,-94.9186,2.0,242.1386866,22.14720976,-99999.0,'11111222,11111222,99999999' 
TABS,ioos:station:wmo:42043:1,2006-03-02T06:00:00Z,28.9818,-94.9186,2.0,253.3071103,24.43989566,-99999.0,'11111222,11111222,99999999' 
TABS,ioos:station:wmo:42043:1,2006-03-02T06:30:00Z,28.9818,-94.9186,2.0,253.0944605,22.38741834,-99999.0,'11111222,11111222,99999999' 
TABS,ioos:station:wmo:42043:1,2006-03-02T07:00:00Z,28.9818,-94.9186,2.0,254.03645,22.14389758,-99999.0,'11111222,11111222,99999999' 
TABS,ioos:station:wmo:42043:1,2006-03-02T07:30:00Z,28.9818,-94.9186,2.0,254.9117253,21.93619156,-99999.0,'11111222,11111222,99999999' 
TABS,ioos:station:wmo:42043:1,2006-03-02T08:00:00Z,28.9818,-94.9186,2.0,254.4884207,23.74482891,-99999.0,'11111222,11111222,99999999' 
TABS,ioos:station:wmo:42043:1,2006-03-02T08:30:00Z,28.9818,-94.9186,2.0,252.0396076,20.98243313,-99999.0,'11111222,11111222,99999999' 
TABS,ioos:station:wmo:42043:1,2006-03-02T09:00:00Z,28.9818,-94.9186,2.0,248.0851059,17.87135417,-99999.0,'11111222,11111222,99999999' 
TABS,ioos:station:wmo:42043:1,2006-03-02T09:30:00Z,28.9818,-94.9186,2.0,247.4797806,18.06771983,-99999.0,'11111222,11111222,99999999' 
TABS,ioos:station:wmo:42043:1,2006-03-02T10:00:00Z,28.9818,-94.9186,2.0,250.6079672,21.02259023,-99999.0,'11111222,11111222,99999999' 
TABS,ioos:station:wmo:42043:1,2006-03-02T10:30:00Z,28.9818,-94.9186,2.0,252.8862955,19.88020372,-99999.0,'11111222,11111222,99999999' 
TABS,ioos:station:wmo:42043:1,2006-03-02T11:00:00Z,28.9818,-94.9186,2.0,241.5723614,21.46864691,-99999.0,'11111222,11111222,99999999' 
TABS,ioos:station:wmo:42043:1,2006-03-02T11:30:00Z,28.9818,-94.9186,2.0,234.3846693,25.84419858,-99999.0,'11111222,11111222,99999999' 
TABS,ioos:station:wmo:42043:1,2006-03-02T12:00:00Z,28.9818,-94.9186,2.0,230.2583849,27.38838622,-99999.0,'11111222,11111222,99999999' 
TABS,ioos:station:wmo:42043:1,2006-03-02T12:30:00Z,28.9818,-94.9186,2.0,228.5112141,28.86171859,-99999.0,'11111222,11111222,99999999' 
TABS,ioos:station:wmo:42043:1,2006-03-02T13:00:00Z,28.9818,-94.9186,2.0,230.2382186,28.26799073,-99999.0,'11111222,11111222,99999999' 
TABS,ioos:station:wmo:42043:1,2006-03-02T13:30:00Z,28.9818,-94.9186,2.0,236.391507,31.0382812,-99999.0,'11111222,11111222,99999999' 
TABS,ioos:station:wmo:42043:1,2006-03-02T14:00:00Z,28.9818,-94.9186,2.0,227.9353509,31.4792789,-99999.0,'11111222,11111222,99999999' 
TABS,ioos:station:wmo:42043:1,2006-03-02T14:30:00Z,28.9818,-94.9186,2.0,227.6538736,30.99745957,-99999.0,'11111222,11111222,99999999' 
TABS,ioos:station:wmo:42043:1,2006-03-02T15:00:00Z,28.9818,-94.9186,2.0,219.6275888,30.96586831,-99999.0,'11111222,11111222,99999999' 
TABS,ioos:station:wmo:42043:1,2006-03-02T15:30:00Z,28.9818,-94.9186,2.0,224.6976976,29.51504701,-99999.0,'11111222,11111222,99999999' 
TABS,ioos:station:wmo:42043:1,2006-03-02T16:00:00Z,28.9818,-94.9186,2.0,224.3152492,28.41357774,-99999.0,'11111222,11111222,99999999' 
TABS,ioos:station:wmo:42043:1,2006-03-02T16:30:00Z,28.9818,-94.9186,2.0,227.4434793,27.69427558,-99999.0,'11111222,11111222,99999999' 
TABS,ioos:station:wmo:42043:1,2006-03-02T17:00:00Z,28.9818,-94.9186,2.0,230.3531803,27.20794186,-99999.0,'11111222,11111222,99999999' 
TABS,ioos:station:wmo:42043:1,2006-03-02T17:30:00Z,28.9818,-94.9186,2.0,230.5807789,24.28402767,-99999.0,'11111222,11111222,99999999' 
TABS,ioos:station:wmo:42043:1,2006-03-02T18:00:00Z,28.9818,-94.9186,2.0,232.0187772,21.35201396,-99999.0,'11111222,11111222,99999999' 
TABS,ioos:station:wmo:42043:1,2006-03-02T18:30:00Z,28.9818,-94.9186,2.0,235.4882862,20.70353834,-99999.0,'11111222,11111222,99999999' 
TABS,ioos:station:wmo:42043:1,2006-03-02T19:00:00Z,28.9818,-94.9186,2.0,236.8764487,19.34334252,-99999.0,'11111222,11111222,99999999' 
TABS,ioos:station:wmo:42043:1,2006-03-02T19:30:00Z,28.9818,-94.9186,2.0,239.5468254,18.27047071,-99999.0,'11111222,11111222,99999999' 
TABS,ioos:station:wmo:42043:1,2006-03-02T20:00:00Z,28.9818,-94.9186,2.0,244.4811236,15.18096176,-99999.0,'11111222,11111222,99999999' 
TABS,ioos:station:wmo:42043:1,2006-03-02T20:30:00Z,28.9818,-94.9186,2.0,243.6308072,14.36458492,-99999.0,'11111222,11111222,99999999' 
TABS,ioos:station:wmo:42043:1,2006-03-02T21:00:00Z,28.9818,-94.9186,2.0,243.8917264,15.13418977,-99999.0,'11111222,11111222,99999999' 
TABS,ioos:station:wmo:42043:1,2006-03-02T21:30:00Z,28.9818,-94.9186,2.0,247.5083605,15.42311577,-99999.0,'11111222,11111222,99999999' 
TABS,ioos:station:wmo:42043:1,2006-03-02T22:00:00Z,28.9818,-94.9186,2.0,242.3106513,15.73152885,-99999.0,'11111222,11111222,99999999' 
TABS,ioos:station:wmo:42043:1,2006-03-02T22:30:00Z,28.9818,-94.9186,2.0,246.6655924,16.10740513,-99999.0,'11111222,11111222,99999999' 
TABS,ioos:station:wmo:42043:1,2006-03-02T23:00:00Z,28.9818,-94.9186,2.0,248.4432389,19.10636805,-99999.0,'11111222,11111222,99999999' 
TABS,ioos:station:wmo:42043:1,2006-03-02T23:30:00Z,28.9818,-94.9186,2.0,243.0567465,22.37905494,-99999.0,'11111222,11111222,99999999' 
TABS,ioos:station:wmo:42043:1,2006-03-03T00:00:00Z,28.9818,-94.9186,2.0,238.6920056,26.28777663,-99999.0,'11111222,11111222,99999999' 
TABS,ioos:station:wmo:42043:1,2006-03-03T00:30:00Z,28.9818,-94.9186,2.0,243.7952188,28.42098696,-99999.0,'11111222,11111222,99999999' 
TABS,ioos:station:wmo:42043:1,2006-03-03T01:00:00Z,28.9818,-94.9186,2.0,246.120709,30.63201103,-99999.0,'11111222,11111222,99999999' 
TABS,ioos:station:wmo:42043:1,2006-03-03T01:30:00Z,28.9818,-94.9186,2.0,242.0283368,30.97887183,-99999.0,'11111222,11111222,99999999' 
TABS,ioos:station:wmo:42043:1,2006-03-03T02:00:00Z,28.9818,-94.9186,2.0,239.2240523,31.85603397,-99999.0,'11111222,11111222,99999999' 
TABS,ioos:station:wmo:42043:1,2006-03-03T02:30:00Z,28.9818,-94.9186,2.0,240.478463,33.99321844,-99999.0,'11111222,11111222,99999999' 
TABS,ioos:station:wmo:42043:1,2006-03-03T03:00:00Z,28.9818,-94.9186,2.0,236.7068706,36.79969565,-99999.0,'11111222,11111222,99999999' 
TABS,ioos:station:wmo:42043:1,2006-03-03T03:30:00Z,28.9818,-94.9186,2.0,236.0311005,38.80173707,-99999.0,'11111222,11111222,99999999' 
TABS,ioos:station:wmo:42043:1,2006-03-03T04:00:00Z,28.9818,-94.9186,2.0,236.2518368,38.5211747,-99999.0,'11111222,11111222,99999999' 
TABS,ioos:station:wmo:42043:1,2006-03-03T04:30:00Z,28.9818,-94.9186,2.0,238.1283952,34.8666058,-99999.0,'11111222,11111222,99999999' 
TABS,ioos:station:wmo:42043:1,2006-03-03T05:00:00Z,28.9818,-94.9186,2.0,240.5537024,31.14306504,-99999.0,'11111222,11111222,99999999' 
TABS,ioos:station:wmo:42043:1,2006-03-03T05:30:00Z,28.9818,-94.9186,2.0,229.5026581,28.0101071,-99999.0,'11111222,11111222,99999999' 
TABS,ioos:station:wmo:42043:1,2006-03-03T06:00:00Z,28.9818,-94.9186,2.0,228.069202,28.52318355,-99999.0,'11111222,11111222,99999999' 
TABS,ioos:station:wmo:42043:1,2006-03-03T06:30:00Z,28.9818,-94.9186,2.0,226.2945988,28.78659758,-99999.0,'11111222,11111222,99999999' 
TABS,ioos:station:wmo:42043:1,2006-03-03T07:00:00Z,28.9818,-94.9186,2.0,226.1263392,28.40997184,-99999.0,'11111222,11111222,99999999' 
TABS,ioos:station:wmo:42043:1,2006-03-03T07:30:00Z,28.9818,-94.9186,2.0,221.7383821,28.96049896,-99999.0,'11111222,11111222,99999999' 
TABS,ioos:station:wmo:42043:1,2006-03-03T08:00:00Z,28.9818,-94.9186,2.0,218.7540182,28.40336072,-99999.0,'11111222,11111222,99999999' 
TABS,ioos:station:wmo:42043:1,2006-03-03T08:30:00Z,28.9818,-94.9186,2.0,217.0526662,28.79414697,-99999.0,'11111222,11111222,99999999' 
TABS,ioos:station:wmo:42043:1,2006-03-03T09:00:00Z,28.9818,-94.9186,2.0,218.5958777,30.93804131,-99999.0,'11111222,11111222,99999999' 
TABS,ioos:station:wmo:42043:1,2006-03-03T09:30:00Z,28.9818,-94.9186,2.0,215.2034973,27.92780693,-99999.0,'11111222,11111222,99999999' 
TABS,ioos:station:wmo:42043:1,2006-03-03T10:00:00Z,28.9818,-94.9186,2.0,210.8496952,30.22668523,-99999.0,'11111222,11111222,99999999' 
TABS,ioos:station:wmo:42043:1,2006-03-03T10:30:00Z,28.9818,-94.9186,2.0,223.2193926,30.27171122,-99999.0,'11111222,11111222,99999999' 
TABS,ioos:station:wmo:42043:1,2006-03-03T11:00:00Z,28.9818,-94.9186,2.0,224.2083967,29.18508009,-99999.0,'11111222,11111222,99999999' 
TABS,ioos:station:wmo:42043:1,2006-03-03T11:30:00Z,28.9818,-94.9186,2.0,226.0156338,32.70175836,-99999.0,'11111222,11111222,99999999' 
TABS,ioos:station:wmo:42043:1,2006-03-03T12:00:00Z,28.9818,-94.9186,2.0,233.3830589,28.95428293,-99999.0,'11111222,11111222,99999999' 
TABS,ioos:station:wmo:42043:1,2006-03-03T12:30:00Z,28.9818,-94.9186,2.0,228.8117392,26.80207828,-99999.0,'11111222,11111222,99999999' 
TABS,ioos:station:wmo:42043:1,2006-03-03T13:00:00Z,28.9818,-94.9186,2.0,232.3642298,29.78865892,-99999.0,'11111222,11111222,99999999' 
TABS,ioos:station:wmo:42043:1,2006-03-03T13:30:00Z,28.9818,-94.9186,2.0,233.6661981,28.62525458,-99999.0,'11111222,11111222,99999999' 
TABS,ioos:station:wmo:42043:1,2006-03-03T14:00:00Z,28.9818,-94.9186,2.0,234.9886088,29.59557399,-99999.0,'11111222,11111222,99999999' 
TABS,ioos:station:wmo:42043:1,2006-03-03T14:30:00Z,28.9818,-94.9186,2.0,235.9426606,32.48113606,-99999.0,'11111222,11111222,99999999' 
TABS,ioos:station:wmo:42043:1,2006-03-03T15:00:00Z,28.9818,-94.9186,2.0,240.8989326,39.82758968,-99999.0,'11111222,11111222,99999999' 
TABS,ioos:station:wmo:42043:1,2006-03-03T15:30:00Z,28.9818,-94.9186,2.0,236.9718741,42.95053201,-99999.0,'11111222,11111222,99999999' 
TABS,ioos:station:wmo:42043:1,2006-03-03T16:00:00Z,28.9818,-94.9186,2.0,237.5870381,49.51375163,-99999.0,'11111222,11111222,99999999' 
TABS,ioos:station:wmo:42043:1,2006-03-03T16:30:00Z,28.9818,-94.9186,2.0,237.653048,57.84617014,-99999.0,'11111222,11111222,99999999' 
TABS,ioos:station:wmo:42043:1,2006-03-03T17:00:00Z,28.9818,-94.9186,2.0,239.8773997,70.99778166,-99999.0,'11111222,11111222,99999999' 
TABS,ioos:station:wmo:42043:1,2006-03-03T17:30:00Z,28.9818,-94.9186,2.0,244.3467147,71.07571878,-99999.0,'11111222,11111222,99999999' 
TABS,ioos:station:wmo:42043:1,2006-03-03T18:00:00Z,28.9818,-94.9186,2.0,246.3822472,71.13847342,-99999.0,'11111222,11111222,99999999' 
TABS,ioos:station:wmo:42043:1,2006-03-03T18:30:00Z,28.9818,-94.9186,2.0,252.1821207,70.13390407,-99999.0,'11111222,11111222,99999999' 
TABS,ioos:station:wmo:42043:1,2006-03-03T19:00:00Z,28.9818,-94.9186,2.0,253.9231699,71.46476754,-99999.0,'11111222,11111222,99999999' 
TABS,ioos:station:wmo:42043:1,2006-03-03T19:30:00Z,28.9818,-94.9186,2.0,258.900745,68.67445304,-99999.0,'11111222,11111222,99999999' 
TABS,ioos:station:wmo:42043:1,2006-03-03T20:00:00Z,28.9818,-94.9186,2.0,263.1712234,66.36071277,-99999.0,'11111222,11111222,99999999' 
TABS,ioos:station:wmo:42043:1,2006-03-03T20:30:00Z,28.9818,-94.9186,2.0,263.7235387,64.12431442,-99999.0,'11111222,11111222,99999999' 
TABS,ioos:station:wmo:42043:1,2006-03-03T21:00:00Z,28.9818,-94.9186,2.0,268.6233718,63.28825562,-99999.0,'11111222,11111222,99999999' 
TABS,ioos:station:wmo:42043:1,2006-03-03T21:30:00Z,28.9818,-94.9186,2.0,270.5806102,59.2530379,-99999.0,'11111222,11111222,99999999' 
TABS,ioos:station:wmo:42043:1,2006-03-03T22:00:00Z,28.9818,-94.9186,2.0,270.9046857,55.1268655,-99999.0,'11111222,11111222,99999999' 
TABS,ioos:station:wmo:42043:1,2006-03-03T22:30:00Z,28.9818,-94.9186,2.0,271.801511,54.40687916,-99999.0,'11111222,11111222,99999999' 
TABS,ioos:station:wmo:42043:1,2006-03-03T23:00:00Z,28.9818,-94.9186,2.0,273.82198,50.86309664,-99999.0,'11111222,11111222,99999999' 
TABS,ioos:station:wmo:42043:1,2006-03-03T23:30:00Z,28.9818,-94.9186,2.0,270.4970002,51.92195008,-99999.0,'11111222,11111222,99999999' 
TABS,ioos:station:wmo:42043:1,2006-03-04T00:00:00Z,28.9818,-94.9186,2.0,271.4148408,48.61481256,-99999.0,'11111222,11111222,99999999' 
TABS,ioos:station:wmo:42043:1,2006-03-04T00:30:00Z,28.9818,-94.9186,2.0,269.8752692,50.70011933,-99999.0,'11111222,11111222,99999999' 
TABS,ioos:station:wmo:42043:1,2006-03-04T01:00:00Z,28.9818,-94.9186,2.0,267.249599,50.64832672,-99999.0,'11111222,11111222,99999999' 
TABS,ioos:station:wmo:42043:1,2006-03-04T01:30:00Z,28.9818,-94.9186,2.0,267.3238002,44.76881169,-99999.0,'11111222,11111222,99999999' 
TABS,ioos:station:wmo:42043:1,2006-03-04T02:00:00Z,28.9818,-94.9186,2.0,265.6522952,41.02804163,-99999.0,'11111222,11111222,99999999' 
TABS,ioos:station:wmo:42043:1,2006-03-04T02:30:00Z,28.9818,-94.9186,2.0,263.7683024,36.02282887,-99999.0,'11111222,11111222,99999999' 
TABS,ioos:station:wmo:42043:1,2006-03-04T03:00:00Z,28.9818,-94.9186,2.0,257.273762,36.27098703,-99999.0,'11111222,11111222,99999999' 
TABS,ioos:station:wmo:42043:1,2006-03-04T03:30:00Z,28.9818,-94.9186,2.0,256.0950273,34.83063307,-99999.0,'11111222,11111222,99999999' 
TABS,ioos:station:wmo:42043:1,2006-03-04T04:00:00Z,28.9818,-94.9186,2.0,255.9472821,34.55405186,-99999.0,'11111222,11111222,99999999' 
TABS,ioos:station:wmo:42043:1,2006-03-04T04:30:00Z,28.9818,-94.9186,2.0,257.3084382,33.68292743,-99999.0,'11111222,11111222,99999999' 
TABS,ioos:station:wmo:42043:1,2006-03-04T05:00:00Z,28.9818,-94.9186,2.0,256.7049746,30.91860605,-99999.0,'11111222,11111222,99999999' 
TABS,ioos:station:wmo:42043:1,2006-03-04T05:30:00Z,28.9818,-94.9186,2.0,253.8130013,27.4064226,-99999.0,'11111222,11111222,99999999' 
TABS,ioos:station:wmo:42043:1,2006-03-04T06:00:00Z,28.9818,-94.9186,2.0,251.3624543,26.87952753,-99999.0,'11111222,11111222,99999999' 
TABS,ioos:station:wmo:42043:1,2006-03-04T06:30:00Z,28.9818,-94.9186,2.0,252.2228061,30.55910503,-99999.0,'11111222,11111222,99999999' 
TABS,ioos:station:wmo:42043:1,2006-03-04T07:00:00Z,28.9818,-94.9186,2.0,250.2267016,30.74255845,-99999.0,'11111222,11111222,99999999' 
TABS,ioos:station:wmo:42043:1,2006-03-04T07:30:00Z,28.9818,-94.9186,2.0,249.7869175,30.27440668,-99999.0,'11111222,11111222,99999999' 
TABS,ioos:station:wmo:42043:1,2006-03-04T08:00:00Z,28.9818,-94.9186,2.0,243.3322155,30.03491302,-99999.0,'11111222,11111222,99999999' 
TABS,ioos:station:wmo:42043:1,2006-03-04T08:30:00Z,28.9818,-94.9186,2.0,240.1055603,30.95917473,-99999.0,'11111222,11111222,99999999' 
TABS,ioos:station:wmo:42043:1,2006-03-04T09:00:00Z,28.9818,-94.9186,2.0,222.9296585,41.69701308,-99999.0,'11111222,11111222,99999999' 
TABS,ioos:station:wmo:42043:1,2006-03-04T09:30:00Z,28.9818,-94.9186,2.0,227.0711769,46.55805194,-99999.0,'11111222,11111222,99999999' 
TABS,ioos:station:wmo:42043:1,2006-03-04T10:00:00Z,28.9818,-94.9186,2.0,231.302452,52.62276028,-99999.0,'11111222,11111222,99999999' 
TABS,ioos:station:wmo:42043:1,2006-03-04T10:30:00Z,28.9818,-94.9186,2.0,237.6089492,52.9597517,-99999.0,'11111222,11111222,99999999' 
TABS,ioos:station:wmo:42043:1,2006-03-04T11:00:00Z,28.9818,-94.9186,2.0,240.3434582,54.48728384,-99999.0,'11111222,11111222,99999999' 
TABS,ioos:station:wmo:42043:1,2006-03-04T11:30:00Z,28.9818,-94.9186,2.0,239.1856685,55.10954364,-99999.0,'11111222,11111222,99999999' 
TABS,ioos:station:wmo:42043:1,2006-03-04T12:00:00Z,28.9818,-94.9186,2.0,240.9834086,56.57061516,-99999.0,'11111222,11111222,99999999' 
TABS,ioos:station:wmo:42043:1,2006-03-04T12:30:00Z,28.9818,-94.9186,2.0,242.4033276,58.88968076,-99999.0,'11111222,11111222,99999999' 
TABS,ioos:station:wmo:42043:1,2006-03-04T13:00:00Z,28.9818,-94.9186,2.0,245.737414,55.31580064,-99999.0,'11111222,11111222,99999999' 
TABS,ioos:station:wmo:42043:1,2006-03-04T13:30:00Z,28.9818,-94.9186,2.0,247.8485398,60.54894962,-99999.0,'11111222,11111222,99999999' 
TABS,ioos:station:wmo:42043:1,2006-03-04T14:00:00Z,28.9818,-94.9186,2.0,249.1818131,56.35941181,-99999.0,'11111222,11111222,99999999' 
TABS,ioos:station:wmo:42043:1,2006-03-04T14:30:00Z,28.9818,-94.9186,2.0,247.329,56.43002215,-99999.0,'11111222,11111222,99999999' 
TABS,ioos:station:wmo:42043:1,2006-03-04T15:00:00Z,28.9818,-94.9186,2.0,247.6126585,54.69199027,-99999.0,'11111222,11111222,99999999' 
TABS,ioos:station:wmo:42043:1,2006-03-04T15:30:00Z,28.9818,-94.9186,2.0,246.6903549,51.65604708,-99999.0,'11111222,11111222,99999999' 
TABS,ioos:station:wmo:42043:1,2006-03-04T16:00:00Z,28.9818,-94.9186,2.0,246.8162156,49.58393692,-99999.0,'11111222,11111222,99999999' 